Location: ????????
(55.5667°N, 37.5833°E)
Time: 21:36:12
(UTC+00:00)

Cosmos 1605 Rocket - Pass Details

Date: 14 April 2026
Orbit: 945 x 1004 km, 82.9° (Epoch: 16 May)

Event Time Altitude Azimuth Distance (km) Brightness Sun altitude
Exits shadow 20:17:10 39° 202° (SSW) 1,379 4.4 -23.0°
Maximum altitude 20:19:34 79° 282° (WNW) 971 3.9 -23.2°
Drops below altitude 10° 20:25:44 10° 10° (N) 2,694 7.2 -23.4°
Sets 20:28:15 0° 12° (NNE) 3,650 8.0 -23.5°
